When you browse on this site, cookies collect data to enhance your experience and personalize the content and advertising you see.
Visit our Privacy Policy to learn more. By continuing to use the site, you agree to this use of cookies and data.
  • In Austria
  • List of Countries
  • For 7 days
  • Water Temperature
  • Satellite Maps
  • Weather Map
  • News
  • Weather Widgets
  • user-avatar
    Login

    Hourly Weather Melbourne

    Today, 26 May, Sunday

    Time Temperature Precipitation Wind Pressure Humidity
    00:00 +12°C° 0 mm 5 mps 757 mmHg 75%
    01:00 +10°C° 0 mm 5 mps 758 mmHg 75%
    02:00 +10°C° 0 mm 5 mps 758 mmHg 75%
    03:00 +10°C° 0 mm 4 mps 758 mmHg 76%
    04:00 +9°C° 0 mm 5 mps 758 mmHg 77%
    05:00 +9°C° 0 mm 5 mps 758 mmHg 77%
    06:00 +10°C° 0 mm 4 mps 758 mmHg 77%
    07:00 +8°C° 0 mm 4 mps 759 mmHg 77%
    08:00 +10°C° 0 mm 4 mps 759 mmHg 72%
    09:00 +10°C° 0 mm 5 mps 759 mmHg 67%
    10:00 +12°C° 0 mm 5 mps 759 mmHg 61%
    11:00 +13°C° 0 mm 5 mps 758 mmHg 58%
    12:00 +14°C° 0 mm 5 mps 758 mmHg 54%
    13:00 +15°C° 0 mm 6 mps 757 mmHg 51%
    14:00 +14°C° 0 mm 6 mps 757 mmHg 52%
    15:00 +14°C° 0 mm 6 mps 756 mmHg 54%
    16:00 +14°C° 0 mm 7 mps 755 mmHg 59%
    17:00 +12°C° 0.1 mm 7 mps 755 mmHg 61%
    18:00 +12°C° 0.1 mm 7 mps 754 mmHg 63%
    19:00 +12°C° 0.1 mm 8 mps 754 mmHg 66%
    20:00 +12°C° 1 mm 8 mps 754 mmHg 70%
    21:00 +12°C° 1 mm 8 mps 753 mmHg 74%
    22:00 +11°C° 0 mm 7 mps 753 mmHg 79%
    23:00 +10°C° 1 mm 6 mps 753 mmHg 77%

    Tomorrow, 27 May, Monday

    Time Temperature Precipitation Wind Pressure Humidity
    00:00 +10°C° 1 mm 6 mps 753 mmHg 75%
    01:00 +9°C° 1 mm 6 mps 753 mmHg 73%
    02:00 +9°C° 0 mm 6 mps 753 mmHg 73%
    03:00 +8°C° 0 mm 6 mps 753 mmHg 73%
    04:00 +7°C° 0 mm 6 mps 753 mmHg 72%
    05:00 +6°C° 0 mm 7 mps 753 mmHg 71%
    06:00 +6°C° 0 mm 7 mps 753 mmHg 70%
    07:00 +6°C° 0 mm 7 mps 753 mmHg 69%
    08:00 +6°C° 0.2 mm 8 mps 754 mmHg 67%
    09:00 +7°C° 0.2 mm 9 mps 754 mmHg 66%
    10:00 +8°C° 0.2 mm 10 mps 754 mmHg 65%
    11:00 +9°C° 0.2 mm 10 mps 755 mmHg 62%
    12:00 +10°C° 0.2 mm 9 mps 755 mmHg 60%
    13:00 +11°C° 0.2 mm 9 mps 755 mmHg 58%
    14:00 +11°C° 0.3 mm 9 mps 755 mmHg 59%
    15:00 +11°C° 0.3 mm 8 mps 756 mmHg 60%
    16:00 +11°C° 0.3 mm 8 mps 756 mmHg 61%
    17:00 +10°C° 0.1 mm 7 mps 757 mmHg 64%
    18:00 +9°C° 0.1 mm 7 mps 757 mmHg 66%
    19:00 +9°C° 0.1 mm 6 mps 758 mmHg 69%
    20:00 +8°C° 0 mm 6 mps 758 mmHg 69%
    21:00 +8°C° 0 mm 6 mps 758 mmHg 70%
    22:00 +8°C° 0 mm 5 mps 759 mmHg 70%
    23:00 +8°C° 0 mm 5 mps 758 mmHg 70%

    Day after tomorrow, 28 May, Tuesday

    Time Temperature Precipitation Wind Pressure Humidity
    00:00 +8°C° 0 mm 5 mps 758 mmHg 70%
    01:00 +8°C° 0 mm 5 mps 758 mmHg 70%
    02:00 +8°C° 0 mm 5 mps 758 mmHg 70%
    03:00 +8°C° 0 mm 5 mps 757 mmHg 71%
    04:00 +9°C° 0 mm 5 mps 757 mmHg 72%
    05:00 +9°C° 0 mm 5 mps 756 mmHg 72%
    06:00 +9°C° 0 mm 5 mps 756 mmHg 73%
    07:00 +9°C° 0 mm 5 mps 756 mmHg 73%
    08:00 +10°C° 0 mm 6 mps 756 mmHg 70%
    09:00 +11°C° 0 mm 6 mps 756 mmHg 67%
    10:00 +12°C° 0 mm 7 mps 755 mmHg 64%
    11:00 +13°C° 0.1 mm 6 mps 755 mmHg 66%
    12:00 +13°C° 0.1 mm 6 mps 754 mmHg 68%
    13:00 +13°C° 0.1 mm 6 mps 753 mmHg 70%
    14:00 +13°C° 0.2 mm 6 mps 753 mmHg 69%
    15:00 +13°C° 0.2 mm 6 mps 752 mmHg 68%
    16:00 +13°C° 0.2 mm 6 mps 752 mmHg 67%
    17:00 +13°C° 0.2 mm 6 mps 752 mmHg 67%
    18:00 +11°C° 0.2 mm 6 mps 751 mmHg 67%
    19:00 +11°C° 0.2 mm 7 mps 751 mmHg 67%
    20:00 +11°C° 0.2 mm 7 mps 751 mmHg 67%
    21:00 +11°C° 0.2 mm 7 mps 751 mmHg 67%
    22:00 +10°C° 0.2 mm 7 mps 751 mmHg 67%
    23:00 +10°C° 0.5 mm 8 mps 750 mmHg 68%

    29 May, Wednesday

    Time Temperature Precipitation Wind Pressure Humidity
    00:00 +9°C° 0.5 mm 8 mps 750 mmHg 69%
    01:00 +9°C° 0.5 mm 8 mps 750 mmHg 69%
    02:00 +9°C° 0.4 mm 8 mps 750 mmHg 69%
    03:00 +7°C° 0.4 mm 8 mps 750 mmHg 69%
    04:00 +7°C° 0.4 mm 8 mps 750 mmHg 69%
    05:00 +6°C° 0.3 mm 8 mps 750 mmHg 69%
    06:00 +6°C° 0.3 mm 8 mps 750 mmHg 69%
    07:00 +6°C° 0.3 mm 7 mps 751 mmHg 70%
    08:00 +6°C° 0.1 mm 8 mps 751 mmHg 65%
    09:00 +7°C° 0.1 mm 8 mps 751 mmHg 61%
    10:00 +7°C° 0.1 mm 8 mps 752 mmHg 56%
    11:00 +9°C° 0.2 mm 8 mps 752 mmHg 53%
    12:00 +9°C° 0.2 mm 8 mps 752 mmHg 51%
    13:00 +10°C° 0.2 mm 8 mps 753 mmHg 48%
    14:00 +9°C° 0.3 mm 7 mps 753 mmHg 51%
    15:00 +9°C° 0.3 mm 7 mps 754 mmHg 54%
    16:00 +8°C° 0.3 mm 6 mps 754 mmHg 58%
    17:00 +8°C° 0.2 mm 6 mps 755 mmHg 61%
    18:00 +7°C° 0.2 mm 5 mps 756 mmHg 65%
    19:00 +6°C° 0.2 mm 5 mps 757 mmHg 69%
    20:00 +6°C° 0.5 mm 5 mps 757 mmHg 71%
    21:00 +6°C° 0.5 mm 5 mps 758 mmHg 73%
    22:00 +6°C° 0.5 mm 5 mps 759 mmHg 75%
    23:00 +6°C° 0.7 mm 5 mps 759 mmHg 77%

    30 May, Thursday

    Time Temperature Precipitation Wind Pressure Humidity
    00:00 +6°C° 0.7 mm 5 mps 760 mmHg 78%
    01:00 +6°C° 0.7 mm 5 mps 760 mmHg 79%
    02:00 +6°C° 0.3 mm 4 mps 761 mmHg 79%
    03:00 +6°C° 0.3 mm 4 mps 761 mmHg 80%
    04:00 +6°C° 0.3 mm 4 mps 762 mmHg 80%
    05:00 +6°C° 0.3 mm 4 mps 763 mmHg 80%
    06:00 +6°C° 0.3 mm 4 mps 764 mmHg 81%
    07:00 +7°C° 0.3 mm 3 mps 764 mmHg 81%
    08:00 +7°C° 0.3 mm 4 mps 765 mmHg 78%
    09:00 +8°C° 0.3 mm 4 mps 766 mmHg 74%
    10:00 +10°C° 0.3 mm 4 mps 767 mmHg 71%
    11:00 +11°C° 0.3 mm 4 mps 767 mmHg 69%
    12:00 +11°C° 0.3 mm 4 mps 767 mmHg 67%
    13:00 +11°C° 0.3 mm 4 mps 767 mmHg 65%
    14:00 +11°C° 0.2 mm 4 mps 767 mmHg 66%
    15:00 +11°C° 0.2 mm 4 mps 768 mmHg 67%
    16:00 +11°C° 0.2 mm 4 mps 768 mmHg 69%
    17:00 +10°C° 0.1 mm 4 mps 769 mmHg 71%
    18:00 +10°C° 0.1 mm 4 mps 769 mmHg 73%
    19:00 +10°C° 0.1 mm 4 mps 770 mmHg 75%
    20:00 +8°C° 0.1 mm 4 mps 771 mmHg 76%
    21:00 +8°C° 0.1 mm 4 mps 771 mmHg 77%
    22:00 +9°C° 0.1 mm 3 mps 771 mmHg 78%
    23:00 +9°C° 0.1 mm 3 mps 771 mmHg 80%

    31 May, Friday

    Time Temperature Precipitation Wind Pressure Humidity
    00:00 +9°C° 0.1 mm 3 mps 771 mmHg 82%
    01:00 +9°C° 0.1 mm 3 mps 771 mmHg 83%
    02:00 +9°C° 0.1 mm 3 mps 771 mmHg 85%
    03:00 +8°C° 0.1 mm 4 mps 771 mmHg 86%
    04:00 +8°C° 0.1 mm 4 mps 771 mmHg 88%
    05:00 +9°C° 0.1 mm 3 mps 771 mmHg 89%
    06:00 +10°C° 0.1 mm 3 mps 772 mmHg 90%
    07:00 +10°C° 0.1 mm 3 mps 772 mmHg 91%
    08:00 +10°C° 0.2 mm 3 mps 772 mmHg 90%
    09:00 +11°C° 0.2 mm 3 mps 773 mmHg 89%
    10:00 +12°C° 0.2 mm 3 mps 773 mmHg 88%
    11:00 +12°C° 0.2 mm 3 mps 772 mmHg 87%
    12:00 +12°C° 0.2 mm 3 mps 772 mmHg 85%
    13:00 +13°C° 0.2 mm 3 mps 772 mmHg 83%
    14:00 +13°C° 0.1 mm 3 mps 772 mmHg 82%
    15:00 +13°C° 0.1 mm 3 mps 772 mmHg 81%
    16:00 +13°C° 0.1 mm 3 mps 772 mmHg 80%
    17:00 +12°C° 0.1 mm 3 mps 772 mmHg 83%
    18:00 +12°C° 0.1 mm 3 mps 772 mmHg 85%
    19:00 +11°C° 0.1 mm 3 mps 773 mmHg 87%
    20:00 +11°C° 0.1 mm 3 mps 773 mmHg 87%
    21:00 +11°C° 0.1 mm 3 mps 773 mmHg 87%
    22:00 +12°C° 0.1 mm 3 mps 773 mmHg 87%
    23:00 +11°C° 0.1 mm 3 mps 773 mmHg 87%
    Show more